User: anonymous   Login
Location: Unspecified
(0.0000°N, 0.0000°E)
Time: 10:53:13
(UTC+00:00)
Language:

GALILEO 10 (206) - Orbit

View from above orbital plane
View from above orbital plane
View from above satellite
View from above satellite

Ground track
Ground track

The orbit data is extracted from the following two-line orbital elements,

1 40890U 15045B   24109.91389424 -.00000029  00000-0  00000-0 0  9994
2 40890  55.2464 243.4015 0002700  45.9456 314.0299  1.70474019 53582
Epoch (UTC): 18 April 2024 21:56:00
Eccentricity: 0.0002700
inclination: 55.2464°
perigee height: 23214 km
apogee height: 23230 km
right ascension of ascending node: 243.4015°
argument of perigee: 45.9456°
revolutions per day: 1.70474019
mean anomaly at epoch: 314.0299°
orbit number at epoch: 5358

The dashed part of the orbit path shows where the satellite is in the earth's shadow,  

DLR